{"data":{"norad_id":63462,"intl_designator":"2025-070C","name":"STARLINK-33691","alt_names":[],"object_type":"PAYLOAD","status":"ACTIVE","operator":null,"country":"US","launch_date":"2025-04-06","launch_site_code":"AFETR","launch_vehicle":null,"mission":null,"orbit_class":"UNKNOWN","rcs_meters":null,"size_class":null,"mass_kg":null,"dimensions":null,"purposes":["comms"],"wikipedia_slug":null,"has_3d_model":false,"image_url":null,"decayed_at":null,"tle_current":{"epoch":"2026-09-20T15:03:33.116832Z","epoch_age_seconds":144942,"freshness":"FRESH","line1":"1 63462U 25070C   26263.62746663  .00006146  00000+0  23261-3 0  9997","line2":"2 63462  42.9950 238.5497 0000436 338.6747  21.4087 15.27589130 82745","mean_motion":15.2758913,"eccentricity":4.36e-5,"inclination_deg":42.995,"raan_deg":238.5497,"arg_perigee_deg":338.6747,"mean_anomaly_deg":21.4087,"bstar":0.00023261,"rev_number":8274,"period_min":94.266185305993,"perigee_km":482.72261114948,"apogee_km":483.32090419315,"semimajor_km":6861.1587576713,"source":"CELESTRAK","updated_at":"2026-09-21T09:00:35.007411Z"}}}